Location: Newark
(45.9456°N, 15.4064°E)
Time: 21:48:08
(UTC+00:00)

SR - Pass Details

Date: 27 January 2020
Orbit: 575 x 881 km, 66.7° (Epoch: 19 February)

Event Time Altitude Azimuth Distance (km) Brightness Sun altitude
Rises 04:26:30 0° 330° (NNW) 3,428 - -20.9°
Reaches altitude 10° 04:29:15 10° 338° (NNW) 2,454 - -20.4°
Exits shadow 04:29:32 11° 339° (NNW) 2,360 ? -20.3°
Maximum altitude 04:34:29 37° 45° (NE) 1,219 ? -19.5°
Drops below altitude 10° 04:39:19 10° 113° (ESE) 2,267 ? -18.7°
Sets 04:41:45 0° 122° (ESE) 3,135 ? -18.2°
